Weather History for Roanoke, VA

Change the Weather History Date:

Friday, November 8, 2013

  Actual Average Record
Temperature  
Mean Temperature 40 °F 51 °F  
Max Temperature 51 °F 62 °F 79 °F (1975)
Min Temperature 29 °F 40 °F 18 °F (1930)
Degree Days  
Heating Degree Days 25 14  
Month to date heating degree days 120 105  
Since 1 July heating degree days 368 402  
Cooling Degree Days 0 0  
Month to date cooling degree days 2 0  
Year to date cooling degree days 1227 1207  
Moisture  
Dew Point 22 °F    
Average Humidity 47    
Maximum Humidity 64    
Minimum Humidity 29    
Precipitation  
Precipitation 0.00 in 0.12 in 1.84 in (1996)
Month to date precipitation 0.04 0.93  
Year to date precipitation 46.02 35.84  
Snow  
Snow 0.00 in - - ()
Month to date snowfall 0.0  
Since 1 July snowfall 0.0  
Since 1 September snowfall 0.0  
Snow Depth 0.00 in    
Sea Level Pressure  
Sea Level Pressure 30.27 in    
Wind  
Wind Speed 8 mph (NW)    
Max Wind Speed 23 mph    
Max Gust Speed 29 mph    
Visibility 10 miles    
Events      
T = Trace of Precipitation, MM = Missing Value Source: NWS Daily Summary

Daily Weather History Graph

Daily Weather History Graph

Search for Another Location

Airport:

Trip Planner

Search our weather history database for the weather conditions in past years. The results will help you decide how hot, cold, wet, or windy it might be!

Date:

Astronomy

Nov. 08, 2013 Rise Set
Actual Time 6:51 AM EST 5:14 PM EST
Civil Twilight 6:24 AM EST 5:42 PM EST
Nautical Twilight 5:53 AM EST 6:13 PM EST
Astronomical Twilight 5:22 AM EST 6:44 PM EST
Moon 11:46 AM EST (11/8) 10:33 PM EST (11/8)
Length of Visible Light 11h 17m
Length of Day
10h 22m
Waxing Crescent, 33% of the Moon is Illuminated
Nov 8
Waxing Crescent
Nov 10
First Quarter
Nov 17
Full
Nov 25
Last Quarter
Dec 2
New

Hourly Weather History & Observations

Time (EST) Temp. Windchill Dew Point Humidity Pressure Visibility Wind Dir Wind Speed Gust Speed Precip Events Conditions
12:54 AM 39.9 °F 34.5 °F 23.0 °F 51% 30.18 in 10.0 mi NW 8.1 mph - N/A   Clear
1:54 AM 41.0 °F 35.8 °F 23.0 °F 49% 30.19 in 10.0 mi WNW 8.1 mph 17.3 mph N/A   Partly Cloudy
2:54 AM 41.0 °F 33.5 °F 21.9 °F 47% 30.19 in 10.0 mi NW 13.8 mph - N/A   Clear
3:54 AM 39.9 °F 36.7 °F 21.9 °F 49% 30.20 in 10.0 mi Variable 4.6 mph - N/A   Clear
4:54 AM 39.0 °F 36.8 °F 21.9 °F 50% 30.22 in 10.0 mi NW 3.5 mph - N/A   Clear
5:54 AM 39.9 °F 33.9 °F 21.9 °F 49% 30.22 in 10.0 mi West 9.2 mph 17.3 mph N/A   Clear
6:54 AM 39.0 °F 36.8 °F 21.9 °F 50% 30.23 in 10.0 mi Variable 3.5 mph - N/A   Partly Cloudy
7:54 AM 43.0 °F 39.5 °F 19.9 °F 40% 30.26 in 10.0 mi WNW 5.8 mph - N/A   Partly Cloudy
8:54 AM 48.0 °F - 24.1 °F 39% 30.27 in 10.0 mi NW 15.0 mph 25.3 mph N/A   Scattered Clouds
9:54 AM 48.0 °F - 24.1 °F 39% 30.29 in 10.0 mi West 15.0 mph 19.6 mph N/A   Scattered Clouds
10:54 AM 46.0 °F 39.3 °F 24.1 °F 42% 30.30 in 10.0 mi West 16.1 mph 23.0 mph N/A   Scattered Clouds
11:54 AM 46.9 °F - 21.9 °F 37% 30.29 in 10.0 mi NW 21.9 mph 28.8 mph N/A   Partly Cloudy
12:54 PM 48.9 °F - 19.9 °F 32% 30.27 in 10.0 mi WNW 12.7 mph 21.9 mph N/A   Partly Cloudy
1:54 PM 50.0 °F - 19.9 °F 31% 30.27 in 10.0 mi NW 12.7 mph 18.4 mph N/A   Partly Cloudy
2:54 PM 51.1 °F - 21.0 °F 31% 30.27 in 10.0 mi North 12.7 mph - N/A   Clear
3:54 PM 50.0 °F - 19.9 °F 31% 30.27 in 10.0 mi WNW 9.2 mph - N/A   Clear
4:54 PM 46.9 °F - 19.9 °F 34% 30.28 in 10.0 mi NW 8.1 mph - N/A   Clear
5:54 PM 45.0 °F 43.5 °F 19.9 °F 37% 30.31 in 10.0 mi WNW 3.5 mph - N/A   Clear
6:54 PM 39.9 °F 36.7 °F 21.9 °F 49% 30.32 in 10.0 mi NNW 4.6 mph - N/A   Clear
7:54 PM 41.0 °F 39.0 °F 21.9 °F 47% 30.32 in 10.0 mi NNW 3.5 mph - N/A   Clear
8:54 PM 39.0 °F - 23.0 °F 53% 30.34 in 10.0 mi Calm Calm - N/A   Clear
9:54 PM 36.0 °F 33.3 °F 21.9 °F 57% 30.35 in 10.0 mi Variable 3.5 mph - N/A   Clear
10:54 PM 33.1 °F - 23.0 °F 66% 30.36 in 10.0 mi Calm Calm - N/A   Clear
11:54 PM 30.0 °F 25.2 °F 23.0 °F 75% 30.35 in 10.0 mi NW 4.6 mph - N/A   Clear